Location: ??
(35.5653°N, 139.6194°E)
Time: 07:39:23
(UTC+00:00)

Shenzhou-11 Module - Pass Details

Date: 20 November 2019
Orbit: 307 x 321 km, 42.8° (Epoch: 07 December)

Event Time Altitude Azimuth Distance (km) Brightness Sun altitude
Exits shadow 19:37:47 33° 114° (ESE) 538 3.4 -21.1°
Drops below altitude 10° 19:39:25 10° 116° (ESE) 1,188 5.6 -20.8°
Sets 19:41:23 0° 117° (ESE) 2,015 7.1 -20.4°
